Weather History for KRBG - September, 2014

Change the Weather History Date:

Sunday, September 21, 2014

  Actual Average Record
Temperature  
Mean Temperature 75 °F 64 °F  
Max Temperature 90 °F 77 °F 99 °F (1994)
Min Temperature 60 °F 50 °F 34 °F (1955)
Degree Days  
Heating Degree Days 0 3  
Month to date heating degree days 0 32  
Since 1 July heating degree days 7 53  
Cooling Degree Days 10 1  
Month to date cooling degree days 141 57  
Year to date cooling degree days 874 468  
Growing Degree Days 24 (Base 50)    
Moisture  
Dew Point 55 °F    
Average Humidity 58    
Maximum Humidity 84    
Minimum Humidity 32    
Precipitation  
Precipitation 0.00 in 0.03 in 0.56 in (2013)
Month to date precipitation 0.09 0.58  
Year to date precipitation 16.74 20.23  
Sea Level Pressure  
Sea Level Pressure 29.90 in    
Wind  
Wind Speed 5 mph (NW)    
Max Wind Speed 16 mph    
Max Gust Speed 21 mph    
Visibility 10 miles    
Events      
T = Trace of Precipitation, MM = Missing Value Source: NWS Daily Summary

Daily Weather History Graph

Daily Weather History Graph

Search for Another Location

Airport or City:

Trip Planner

Search our weather history database for the weather conditions in past years. The results will help you decide how hot, cold, wet, or windy it might be!

Date:

Astronomy

Sep. 21, 2014 Rise Set
Actual Time 6:59 AM PDT 7:12 PM PDT
Civil Twilight 6:31 AM PDT 7:40 PM PDT
Nautical Twilight 5:57 AM PDT 8:14 PM PDT
Astronomical Twilight 5:23 AM PDT 8:48 PM PDT
Moon 4:35 AM PDT (9/21) 5:53 PM PDT (9/21)
Length of Visible Light 13h 09m
Length of Day
12h 12m
Waning Crescent, 6% of the Moon is Illuminated
Sep 21
Waning Crescent
Sep 23
New
Oct 1
First Quarter
Oct 8
Full
Oct 15
Last Quarter

Hourly Weather History & Observations

Time (PDT) Temp. Heat Index Dew Point Humidity Pressure Visibility Wind Dir Wind Speed Gust Speed Precip Events Conditions
12:53 AM 70.0 °F - 55.9 °F 61% 29.86 in 10.0 mi Calm Calm - N/A   Clear
1:53 AM 68.0 °F - 55.9 °F 65% 29.87 in 10.0 mi Calm Calm - N/A   Clear
2:53 AM 64.9 °F - 55.0 °F 70% 29.86 in 10.0 mi Calm Calm - N/A   Clear
3:53 AM 64.0 °F - 55.0 °F 73% 29.87 in 10.0 mi Calm Calm - N/A   Clear
4:53 AM 63.0 °F - 55.0 °F 75% 29.87 in 10.0 mi Calm Calm - N/A   Clear
5:53 AM 61.0 °F - 55.0 °F 81% 29.88 in 10.0 mi Calm Calm - N/A   Clear
6:53 AM 60.1 °F - 55.0 °F 83% 29.90 in 10.0 mi Calm Calm - N/A   Clear
8:53 AM 64.0 °F - 55.0 °F 73% 29.93 in 10.0 mi Calm Calm - N/A   Clear
9:53 AM 66.9 °F - 55.0 °F 66% 29.92 in 10.0 mi SW 3.5 mph - N/A   Clear
10:53 AM 72.0 °F - 55.9 °F 57% 29.91 in 10.0 mi Calm Calm - N/A   Clear
11:53 AM 78.1 °F - 55.9 °F 46% 29.90 in 10.0 mi WSW 5.8 mph - N/A   Clear
12:53 PM 82.9 °F 82.4 °F 57.0 °F 41% 29.88 in 10.0 mi WSW 3.5 mph - N/A   Clear
1:53 PM 87.1 °F 85.7 °F 55.9 °F 35% 29.85 in 10.0 mi Variable 3.5 mph - N/A   Clear
2:53 PM 89.1 °F 87.1 °F 55.0 °F 31% 29.84 in 10.0 mi Variable 4.6 mph - N/A   Clear
3:53 PM 89.1 °F 87.7 °F 57.0 °F 34% 29.84 in 10.0 mi NW 10.4 mph - N/A   Clear
4:53 PM 84.9 °F 83.3 °F 54.0 °F 34% 29.85 in 10.0 mi NW 13.8 mph - N/A   Clear
5:53 PM 82.0 °F 81.3 °F 54.0 °F 38% 29.88 in 10.0 mi North 12.7 mph - N/A   Clear
6:53 PM 75.9 °F - 55.0 °F 48% 29.90 in 10.0 mi North 10.4 mph - N/A   Clear
7:53 PM 72.0 °F - 55.0 °F 55% 29.94 in 10.0 mi NNW 9.2 mph - N/A   Clear
8:53 PM 69.1 °F - 54.0 °F 58% 29.97 in 10.0 mi North 9.2 mph - N/A   Clear
9:53 PM 66.9 °F - 54.0 °F 63% 29.97 in 10.0 mi NNE 9.2 mph - N/A   Clear
10:53 PM 64.9 °F - 54.0 °F 68% 29.99 in 10.0 mi North 5.8 mph - N/A   Clear
11:53 PM 63.0 °F - 54.0 °F 72% 29.99 in 10.0 mi North 4.6 mph - N/A   Clear